Hourly Data Report for September 05, 2017

All times are specified in Local Standard Time (LST). Add 1 hour to adjust for Daylight Saving Time where and when it is observed.

BUCTOUCHE CDA CS
NEW BRUNSWICK

46°25'49.006" N
64°46'05.009" W
35.90 m
8100593
71666
ABT

Download Data

Hourly Data (September 2017)
Hourly Data Report for September 5, 2017
Temp Definition
°C
Dew Point Temp Definition
°C
Rel Hum Definition
%
Wind Dir Definition
10's deg

Wind Spd Definition
km/h
Visibility Definition
km
Stn Press Definition
kPa
Hmdx Definition


Wind Chill Definition


Weather Definition


TIME
00:00 16.9 11.2 69 22 16   100.26     LegendNANA
01:00 16.5 10.9 70 21 16   100.24     LegendNANA
02:00 16.2 11.2 72 21 15   100.26     LegendNANA
03:00 15.8 11.6 76 21 11   100.22     LegendNANA
04:00 15.8 12.0 78 19 9   100.20     LegendNANA
05:00 16.2 12.4 78 19 10   100.15     LegendNANA
06:00 14.5 11.7 84 18 8   100.19     LegendNANA
07:00 16.0 12.8 82 18 9   100.16     LegendNANA
08:00 18.0 13.5 75 20 15   100.16     LegendNANA
09:00 20.1 13.8 67 21 19   100.20     LegendNANA
10:00 22.3 14.3 61 21 22   100.20 26   LegendNANA
11:00 23.7 14.5 56 20 21   100.19 27   LegendNANA
12:00 25.8 14.8 51 21 20   100.17 30   LegendNANA
13:00 25.7 14.7 51 21 23   100.18 29   LegendNANA
14:00 25.7 15.1 52 23 23   100.21 30   LegendNANA
15:00 25.5 15.0 52 22 24   100.25 29   LegendNANA
16:00 24.5 15.8 58 23 14   100.30 29   LegendNANA
17:00 23.0 16.0 65 20 15   100.39 28   LegendNANA
18:00 21.2 16.3 74 20 16   100.47 26   LegendNANA
19:00 20.3 16.5 79 20 11   100.48 25   LegendNANA
20:00 19.6 16.5 82 21 8   100.53     LegendNANA
21:00 20.0 16.7 81 20 14   100.56 25   LegendNANA
22:00 20.3 17.0 81 20 14   100.59 26   LegendNANA
23:00 19.9 17.0 83 20 15   100.59     LegendNANA

Notes on Data Quality.

Legend

  • E = Estimated
  • M = Missing
  • NA = Not Available
  • ‡ = Partner data that is not subject to review by the National Climate Archives
Date modified: